CAPE
1155 1104 1104 1001 699 648 863 632 542 388 468 676 357 575 986 1260 928 872 627 446 394 392 299 277 152 660 499 377 924 1008 1133 953 1067 1272 1002 1199 889 1111 1430 1386 1366 1097 656 458 501 479 549 479 378 314 181 105 719 651 448 366 281 193 125 135 90 24 7 0 0 0 0 0 0 0 0 0 0 0 0 0 0 0 0 0 0 0 0 0 0
1150 903 1251 1292 958 936 1202 1307 1426 1446 1020 1119 840 847 812 754 944 783 593 475 358 395 232 224 214 332 786 710 1058 873 831 1090 817 930 533 945 1011 894 1530 1348 1322 1189 828 584 536 470 403 504 450 347 160 98 801 732 799 630 482 351 296 224 114 52 46 31 0 0 0 0 0 0 0 0 0 0 0 0 0 0 0 0 0 0 0 0 0
1417 902 1066 1058 1087 901 1291 1340 1471 1289 1470 1459 1306 739 1019 631 826 1034 300 514 454 250 304 194 226 238 538 533 666 798 915 767 997 685 706 872 1116 886 1268 1380 1259 1300 1259 1237 946 563 282 388 331 328 321 219 122 903 723 634 684 602 446 334 154 99 106 45 15 0 0 0 0 0 0 0 0 0 0 0 0 0 0 0 0 0 0 0 0
1341 1375 1180 1222 1005 1418 1244 1182 1178 1398 1294 1365 1249 858 652 899 993 766 1150 511 425 347 320 198 191 173 154 350 420 649 970 574 642 1006 1116 1482 940 783 858 950 1521 1257 1167 1261 1328 776 482 358 436 385 393 292 205 147 229 632 536 574 621 444 290 168 156 104 22 37 2 0 0 0 0 0 0 0 0 0 0 0 0 0 0 0 0 0 0
1552 1125 832 729 755 707 1159 994 1310 1440 1063 1100 912 759 804 835 804 809 861 852 268 322 119 354 338 225 188 274 296 363 310 760 819 1113 897 1411 1132 1240 916 603 923 1385 1153 1046 1184 1127 942 435 414 370 348 277 216 232 179 134 78 105 905 598 458 324 228 166 103 49 54 5 0 0 0 0 0 0 0 0 0 0 0 0 0 0 0 0 0
1023 1030 834 1362 1308 1556 1384 1547 1748 1550 1368 1215 1038 1339 1010 972 612 792 707 1318 1101 422 524 431 501 291 392 218 157 289 257 270 360 547 826 950 1263 1484 1204 1717 831 893 951 1431 1207 1040 1086 834 474 360 304 283 309 204 229 232 162 86 455 815 652 491 415 282 213 112 47 29 0 8 1 0 0 0 0 0 0 0 0 0 0 0 0 0 0
1482 1468 1196 857 1160 1101 1071 1600 1676 1425 1085 1299 1036 1146 1140 889 975 828 590 703 462 422 244 568 487 224 454 509 368 374 349 335 271 1108 875 1143 1306 1202 1051 995 1871 1617 930 939 1544 1085 850 1280 811 787 621 350 324 298 245 302 303 240 206 975 775 587 448 371 310 225 123 88 20 13 26 0 0 0 0 0 0 0 0 0 0 0 0 0 0
1432 1136 1349 1210 899 944 1110 1356 1254 1851 1386 1299 1190 1087 1301 921 779 808 691 1377 482 485 1029 516 889 825 634 725 1020 658 214 559 262 518 846 1106 845 878 1004 778 1183 1070 1674 1642 1430 1069 928 1120 1492 1094 886 668 594 433 333 334 341 348 338 816 794 681 571 409 388 293 239 170 101 24 43 6 3 0 0 0 0 0 0 0 0 0 0 0 0
1486 1445 868 1180 642 774 916 1016 1225 1354 1172 1077 845 1055 904 1062 1196 847 1313 750 897 857 811 635 966 1119 1028 1377 1232 528 879 1704 876 778 1530 1201 1087 1144 1302 1009 956 978 1091 1185 1189 1110 797 1371 1204 1328 1227 1089 890 747 640 559 451 409 448 415 1074 904 745 660 523 429 363 303 218 152 75 35 23 0 1 0 0 0 0 0 0 0 0 0 0
1091 1342 1173 1125 719 490 898 824 683 925 843 931 972 906 1110 1387 1232 1423 1309 1095 1258 1049 878 1150 1136 1204 1420 1444 1116 918 1232 1172 1211 1088 935 949 1216 900 874 933 1058 1097 916 774 1146 1304 847 850 1049 1048 1306 1097 1041 1089 938 869 974 1026 1008 909 791 697 1021 922 777 644 493 450 355 275 190 98 42 21 1 2 2 0 0 0 0 0 0 0 0
1440 1464 1406 992 916 716 680 685 930 1524 1365 810 1120 1222 1272 1390 1450 1416 1247 1471 1220 1116 718 1175 773 850 917 1610 1563 1614 1432 1376 1294 1363 1523 1131 798 681 871 940 1061 801 1094 1094 1132 1000 964 1300 955 846 1192 720 1032 1256 1238 1218 1330 1204 945 882 818 950 979 859 754 708 754 616 521 476 381 257 111 66 32 3 0 0 0 0 0 0 0 0 0
1565 1483 1499 1490 1278 939 1195 786 1093 1458 1516 804 848 1489 1362 1438 1383 1043 1204 928 1105 483 963 1128 870 952 1412 1383 1275 1344 1464 1376 1437 1152 968 994 1338 931 918 935 1465 1141 1233 823 970 939 878 849 1146 1206 1376 815 823 807 1166 1240 970 1215 1247 1066 934 949 832 1005 991 814 844 934 706 491 626 412 290 155 90 42 18 0 1 0 0 0 0 0 0
1479 1521 1302 1247 1084 1406 802 845 1156 1188 1554 1562 1579 1622 1771 1790 1356 870 1001 789 976 684 909 778 984 1002 733 1281 1277 1071 1104 1102 1446 1334 1278 1251 1184 903 1236 1097 1136 1064 1031 1093 706 1060 1070 896 862 1153 1320 1348 925 787 731 580 687 913 1027 880 982 1088 1123 1040 1022 973 961 898 949 865 912 680 474 332 176 132 71 39 14 0 0 0 0 0 0
1342 1533 1663 1378 1321 1263 1253 1382 1304 1119 1580 1635 1599 1305 1278 1103 893 644 485 485 535 763 944 692 776 987 1055 800 762 802 896 915 688 834 1221 1143 1046 1396 1317 1019 1156 1052 927 1056 756 668 905 905 1422 1301 1285 1452 1530 1074 991 776 620 241 257 330 470 736 1157 1140 915 1109 995 896 955 928 1056 1012 780 484 428 231 163 88 56 46 0 0 0 0 0
1291 1609 1753 1634 1540 1386 1146 1152 1420 983 1331 1625 1470 1719 1319 1104 691 530 629 503 479 739 969 1218 1134 826 515 586 866 412 636 883 728 1130 754 837 1198 989 821 1118 1068 663 886 449 510 904 1029 1032 967 1197 1290 1208 1224 1220 974 464 91 207 171 194 339 634 915 967 1021 979 1014 948 924 895 942 1051 994 798 490 444 259 200 116 75 25 0 0 0 0
804 849 1444 1558 1788 1539 1360 1510 1564 1631 1052 1216 1139 1248 1100 903 666 580 669 456 466 731 1298 1870 1013 1239 678 357 405 1062 852 692 948 690 846 810 1002 1066 818 791 1212 631 1021 636 528 976 731 850 561 314 452 238 377 1270 964 386 164 53 0 0 3 27 244 501 510 709 877 872 895 892 864 766 870 861 819 580 514 243 207 165 86 17 1 0 0
645 655 609 800 666 686 934 1221 1530 1606 1253 787 906 802 581 796 745 840 724 463 668 1281 1262 1196 1050 1257 1011 362 430 293 373 808 726 618 933 1035 648 679 877 891 915 853 1136 1149 759 839 1076 322 184 170 176 202 116 183 145 314 285 244 1 0 0 0 0 0 32 174 314 490 551 696 760 665 722 704 752 793 592 470 258 174 183 93 32 2 1
536 533 544 527 368 154 47 197 458 935 1078 1469 1203 975 876 817 1145 1155 680 760 1290 992 1057 1239 1264 1365 1034 865 1008 486 464 798 562 547 588 931 678 713 808 655 276 685 711 1573 954 348 85 19 48 75 124 101 127 100 30 0 0 0 0 0 0 0 0 0 0 8 319 407 374 436 523 677 531 529 599 590 582 571 353 241 181 183 110 25 6
464 398 141 78 198 401 557 317 174 230 541 672 967 1341 901 948 1233 1003 975 1237 1317 1101 1182 1136 1216 1184 1094 1160 904 831 874 595 568 442 491 542 608 316 363 290 359 408 328 32 37 0 0 0 0 0 0 1 2 2 2 0 0 0 0 0 0 0 0 0 0 0 8 200 380 429 454 602 686 572 442 497 494 580 492 442 372 305 229 112 71
259 184 254 196 412 464 450 406 253 112 81 113 344 585 879 1238 1071 1112 1176 846 1166 694 468 900 1048 888 1052 862 728 936 956 1225 717 656 332 393 210 76 153 154 68 14 10 1 0 0 0 3 0 0 0 0 0 0 0 0 0 0 0 0 0 0 0 0 0 0 0 0 253 546 627 400 414 423 433 298 395 512 460 444 460 414 348 268 167
369 115 256 116 270 438 409 311 228 161 82 170 277 416 689 1114 890 1030 938 1188 1232 915 927 1218 996 876 844 1081 750 655 849 847 960 386 435 256 60 55 70 34 17 7 3 0 0 0 0 0 0 0 0 0 0 0 0 0 0 0 0 0 0 0 0 0 0 0 0 0 43 324 457 501 556 425 309 311 386 448 471 364 392 417 382 304 276
360 322 240 154 193 309 307 296 252 160 181 243 263 352 476 646 798 900 1213 1136 1117 1301 1222 1082 627 783 751 995 938 686 789 524 697 572 760 587 123 18 120 97 12 2 2 1 0 0 0 0 0 0 0 0 0 0 0 0 0 0 0 0 0 0 0 0 0 0 0 0 0 20 81 136 209 200 207 371 403 364 500 505 414 396 368 375 319
317 383 432 313 275 200 259 245 316 288 174 122 156 121 358 465 506 660 866 1145 1231 1410 1246 1226 1043 971 880 524 788 518 830 243 577 402 396 467 283 83 134 43 1 0 0 0 0 0 0 0 0 0 0 0 0 0 0 0 0 0 0 0 0 0 0 0 0 0 0 0 0 0 0 2 3 4 5 18 266 397 499 600 495 496 428 413 408
366 407 395 328 238 169 176 250 198 228 102 87 93 110 120 195 294 340 648 830 811 1029 1245 1175 1032 996 1004 812 644 673 693 502 340 428 329 491 210 80 7 8 1 0 0 0 0 0 0 0 0 0 0 0 0 0 0 0 0 0 0 0 0 0 0 0 0 0 0 0 0 0 0 0 0 0 0 1 64 153 348 420 379 398 373 350 357
301 320 220 94 69 99 191 190 68 9 11 0 7 43 107 145 232 299 314 329 465 797 1386 1442 1184 921 278 192 235 342 245 586 822 660 462 708 304 48 0 0 0 0 0 0 0 0 0 0 0 0 0 0 0 0 0 0 0 0 0 0 0 0 0 0 0 0 0 0 0 0 0 0 0 0 0 4 0 6 38 129 236 227 340 340 262
276 228 58 43 130 180 113 4 0 12 51 108 43 3 0 24 81 82 131 200 323 406 441 326 203 103 58 12 4 1 0 1 13 23 30 24 6 0 7 0 0 0 0 0 0 0 0 0 0 0 0 0 0 0 0 0 0 0 0 0 0 0 0 0 0 0 0 0 0 0 0 0 0 0 0 0 0 22 54 35 42 37 66 44 28
159 54 0 0 0 0 0 0 36 37 12 0 0 0 0 0 0 1 7 39 94 208 268 252 132 0 0 0 0 0 0 0 0 0 0 0 0 0 0 0 0 0 0 0 0 0 0 0 0 0 0 0 0 0 0 0 0 0 0 0 0 0 0 0 0 0 0 0 0 0 0 0 0 0 0 0 0 0 0 7 51 48 34 20 12
52 0 0 0 0 0 0 0 0 2 0 0 0 0 0 0 0 0 0 0 0 0 2 0 0 0 0 0 0 0 0 0 0 0 0 0 0 0 0 0 0 0 0 0 0 0 0 0 0 0 0 0 0 0 0 0 0 0 0 0 0 0 0 0 0 0 0 0 0 0 0 0 0 0 0 0 0 0 0 0 0 0 34 21 5
0 0 0 0 0 0 0 0 0 0 0 0 0 0 0 0 0 0 0 0 0 0 0 0 0 0 0 0 0 0 0 0 0 0 0 0 0 0 0 0 2 2 1 4 0 0 0 0 0 0 0 0 0 0 0 0 0 0 0 0 0 0 0 0 0 0 0 0 0 0 0 0 0 0 0 0 0 0 0 0 0 0 0 0 0
0 0 0 0 0 0 0 0 0 0 0 0 0 0 0 0 0 0 0 0 0 0 0 0 0 0 0 0 0 0 0 0 0 0 0 0 0 0 0 0 0 8 7 11 0 0 0 0 0 0 0 0 0 0 0 0 0 0 0 0 0 0 0 0 0 0 0 0 0 0 0 0 0 0 0 0 0 0 0 0 0 0 0 0 0
0 0 0 0 0 0 0 0 0 0 0 0 0 0 0 0 0 0 0 0 0 0 0 0 0 0 0 0 0 0 0 0 0 0 0 0 0 0 0 0 0 1 5 3 0 0 0 0 0 0 0 0 0 0 0 0 0 0 0 0 0 0 0 0 0 0 0 0 0 0 0 0 0 0 0 0 0 0 0 0 0 0 0 0 0
0 0 0 0 0 0 0 0 0 0 0 0 0 0 0 0 0 0 0 0 0 0 0 0 0 0 0 0 0 0 0 0 0 0 0 0 0 0 0 0 0 0 0 5 0 0 0 0 0 0 0 0 0 0 0 0 0 0 0 0 0 0 0 0 0 0 0 0 0 0 0 0 0 0 0 0 0 0 0 0 0 0 0 0 0
0 0 0 0 0 0 0 0 0 0 0 0 0 0 0 0 0 0 0 0 0 0 0 0 0 0 0 0 0 0 0 0 0 0 0 0 0 0 0 0 0 1 17 0 0 0 0 0 0 0 0 0 0 0 0 0 0 0 0 0 0 0 0 0 0 0 0 0 0 0 0 0 0 0 0 0 0 0 0 0 0 0 0 0 0
0 0 0 0 0 0 0 0 0 0 0 0 0 0 0 0 0 0 0 0 0 0 0 0 0 0 0 0 0 0 0 0 0 0 0 0 0 0 0 0 0 0 0 4 0 0 0 0 0 0 0 0 0 0 0 0 0 0 0 0 0 0 0 0 0 0 0 0 0 0 0 0 0 0 0 0 0 0 0 0 0 0 0 0 0
0 0 0 0 0 0 0 0 0 0 0 0 0 0 0 0 0 0 0 0 0 0 0 0 0 0 0 0 0 0 0 0 0 0 0 0 0 0 0 0 0 0 0 0 0 3 0 0 0 0 0 0 0 0 0 0 0 0 0 0 0 0 0 0 0 0 0 0 0 0 0 0 0 0 0 0 0 0 0 0 0 0 0 0 0
0 0 0 0 0 0 0 0 0 0 0 0 0 0 0 0 0 0 0 0 0 0 0 0 0 0 0 0 0 0 0 0 0 0 0 0 0 0 0 0 0 0 0 0 0 0 4 0 0 0 0 0 0 0 0 0 0 0 0 0 0 0 0 0 0 0 0 0 0 0 0 0 0 0 0 0 0 0 0 0 0 0 0 0 0
0 0 0 0 0 0 0 0 0 0 0 0 0 0 0 0 0 0 0 0 0 0 0 0 0 0 0 0 0 0 0 0 0 0 0 0 0 0 0 0 0 0 0 0 0 0 1 4 4 0 0 0 0 0 0 0 0 0 0 0 0 0 0 0 0 0 0 0 0 0 0 0 0 0 0 0 0 0 0 0 0 0 0 0 0
0 5 0 0 0 0 0 0 0 2 2 1 4 5 9 17 12 5 1 1 1 0 0 0 0 0 0 0 1 0 0 2 0 0 0 0 0 0 0 0 0 0 0 0 0 0 0 1 5 5 2 0 1 0 0 0 0 0 0 0 0 0 0 0 0 0 0 0 0 0 0 0 0 0 0 0 0 0 0 0 0 0 0 0 0
8 2 6 0 0 0 0 0 0 0 1 1 4 10 12 55 172 118 219 166 126 129 47 14 2 1 18 9 9 0 0 10 6 0 0 0 0 0 0 0 0 0 0 1 4 2 0 0 2 1 1 3 2 0 0 0 0 0 0 0 0 0 0 0 0 0 0 0 0 0 0 0 0 0 0 0 0 0 0 0 0 0 0 0 0
155 88 65 41 10 3 0 0 0 0 1 3 7 23 64 106 289 348 377 442 345 352 353 237 237 182 158 150 149 68 29 23 84 25 2 0 0 0 0 0 0 0 0 0 0 0 0 0 1 2 8 0 3 1 1 2 0 0 1 0 0 0 0 0 0 0 0 0 0 0 0 0 0 0 0 0 0 0 0 0 0 0 0 0 0
38 16 18 20 101 100 87 56 10 5 9 11 9 218 279 347 530 609 655 587 701 696 659 534 513 422 343 409 331 427 253 119 3 9 28 4 0 0 0 0 0 0 0 0 0 0 0 1 5 7 4 3 6 6 2 5 2 0 0 0 0 0 0 0 0 0 0 0 0 0 0 0 0 0 0 0 0 0 0 0 0 0 0 0 0
54 39 46 62 62 168 316 389 341 588 528 708 1738 173 563 1011 1009 942 1070 1016 894 1094 964 900 982 833 595 597 583 394 152 0 0 0 0 0 0 212 67 31 3 0 0 0 0 2 2 1 1 4 4 4 5 4 2 7 5 6 2 0 0 0 0 0 0 0 0 0 0 0 0 0 0 0 0 0 0 0 0 0 0 0 0 0 0
763 514 41 51 63 59 338 572 665 1128 1050 1255 736 491 508 735 1068 1206 1213 984 980 960 1023 976 1102 1194 1280 1027 1075 1128 154 0 0 0 0 0 0 0 0 0 0 127 0 0 0 2 0 2 3 4 6 7 6 2 4 3 8 0 0 0 0 0 0 0 0 0 0 0 0 0 0 0 0 0 0 0 0 0 0 0 0 0 0 0 0
1270 1186 920 726 641 305 277 818 973 1282 1430 1178 857 670 500 638 814 1283 1051 946 848 922 866 528 754 875 808 613 490 456 366 254 185 162 204 197 180 76 0 0 0 0 0 0 0 0 5 4 0 0 0 0 3 4 5 1 0 0 0 0 0 0 0 0 0 0 0 0 0 0 0 0 0 0 0 0 0 0 0 0 0 0 0 0 0
1389 1393 1260 1152 1092 1006 790 790 1021 1231 1231 795 1035 773 170 0 364 501 895 903 725 829 610 609 737 935 639 215 403 477 531 404 228 126 170 190 188 147 1 0 0 0 0 24 0 0 0 0 0 0 2 3 0 0 0 0 0 0 0 0 0 0 0 0 0 0 0 0 0 0 0 0 0 0 0 0 0 0 0 0 0 0 0 0 0
1101 1336 1385 1290 1245 1362 1294 1072 1095 1347 1037 672 804 558 145 0 0 9 320 554 800 971 1034 900 808 759 488 300 222 398 391 302 182 177 113 0 200 174 0 0 0 0 0 35 0 0 0 0 0 0 0 0 0 0 0 0 0 0 0 0 0 0 0 0 0 0 0 0 0 0 0 0 0 0 0 0 0 0 0 0 0 0 0 0 0
1193 977 966 949 1129 1130 1092 1125 1252 1223 1254 858 724 589 350 0 99 57 157 468 948 1370 919 509 2 225 290 675 248 133 174 321 162 240 351 63 0 0 0 0 0 0 0 0 0 0 0 0 0 0 0 0 0 0 0 0 0 0 0 0 0 0 0 0 0 0 0 0 0 0 0 0 0 0 0 0 0 0 0 0 0 0 0 0 0
1101 920 845 960 1032 996 1042 1038 1079 1095 1903 932 714 528 456 412 124 97 258 653 1060 1124 663 582 368 198 198 216 82 101 156 228 355 125 59 174 53 0 0 0 0 0 0 0 0 0 0 0 0 0 0 0 0 0 0 0 0 0 0 0 0 0 0 0 0 0 0 0 0 0 0 0 0 0 0 0 0 0 0 0 0 0 0 0 0
1207 1076 1009 892 776 882 799 952 957 970 1403 763 588 470 398 22 14 12 524 602 701 418 529 408 130 10 200 278 216 29 142 479 55 0 0 35 88 5 0 0 0 0 0 0 0 0 0 0 0 0 0 0 0 0 0 0 0 0 0 0 0 0 0 0 0 0 0 0 0 0 0 0 0 0 0 0 0 0 0 0 0 0 0 0 0
1179 1120 1069 921 912 821 747 886 877 854 1150 701 527 448 355 42 0 451 428 525 373 3 322 141 109 222 0 0 0 171 545 157 0 0 89 152 64 25 0 0 0 0 0 0 0 0 0 0 0 0 0 0 0 0 0 0 0 0 0 0 0 0 0 0 0 0 0 0 0 0 0 0 0 0 0 0 0 0 0 0 0 0 0 0 0
1325 1279 1173 1093 1120 1190 1238 1229 1284 1088 1111 916 887 735 461 102 203 503 815 187 42 12 18 117 131 24 0 0 0 0 95 0 0 0 63 0 72 16 2 1 1 0 0 0 0 0 0 0 0 0 0 0 0 0 0 0 0 0 0 0 0 0 0 0 0 0 0 0 0 0 0 0 0 0 0 0 0 0 0 0 0 0 0 0 0
Wind_Speed
17 18 17 19 19 17 14 11 10 5 7 17 15 17 16 17 17 14 13 16 15 13 14 16 16 16 18 20 16 19 18 18 20 22 26 25 26 28 29 29 28 26 28 27 26 26 25 25 26 25 25 23 25 23 23 22 21 21 20 20 nan nan nan nan nan nan nan nan nan nan nan nan nan nan nan nan nan nan nan nan nan nan nan nan nan
18 17 17 19 16 17 14 14 13 10 16 16 21 19 22 16 8 11 14 13 16 15 13 15 15 16 17 19 16 18 18 18 21 20 28 25 27 28 29 28 29 29 29 28 28 26 25 26 25 26 26 nan 25 24 23 23 23 22 22 21 20 nan nan nan nan nan nan nan nan nan nan nan nan nan nan nan nan nan nan nan nan nan nan nan nan
18 16 16 16 15 14 13 13 14 16 15 14 19 19 17 13 15 7 11 12 16 16 12 16 16 17 16 18 17 17 19 18 18 20 26 27 27 27 28 28 29 30 29 29 26 25 24 25 25 25 26 24 23 26 25 24 23 23 23 23 21 nan 19 nan nan nan nan nan nan nan nan nan nan nan nan nan nan nan nan nan nan nan nan nan nan
15 15 15 14 12 12 12 12 12 14 14 14 15 17 14 11 12 15 8 12 14 15 12 15 15 17 17 15 17 16 16 19 16 21 29 27 28 28 27 27 28 27 27 28 27 26 24 23 25 25 27 26 26 27 26 26 24 22 24 23 22 20 19 19 nan nan nan nan nan nan nan nan nan nan nan nan nan nan nan nan nan nan nan nan nan
14 13 13 14 13 12 9 11 13 12 11 12 13 13 13 13 15 12 10 8 10 11 10 13 13 16 14 19 14 16 16 18 18 20 29 29 29 29 28 25 25 27 25 25 26 26 25 25 24 25 25 26 28 27 26 25 nan 23 24 24 22 21 20 19 19 nan nan nan nan nan nan nan nan nan nan nan nan nan nan nan nan nan nan nan nan
12 11 9 10 10 12 11 10 12 13 12 12 12 13 11 15 15 12 10 13 13 8 10 13 14 15 13 18 16 14 20 19 19 25 29 30 26 27 27 19 20 23 24 25 27 27 25 25 25 25 25 24 26 26 26 26 27 nan 25 24 23 21 21 20 19 19 nan nan nan nan nan nan nan nan nan nan nan nan nan nan nan nan nan nan nan
8 7 8 11 8 11 9 9 11 13 12 13 13 12 10 13 10 5 6 9 11 4 10 12 12 14 14 13 17 18 16 24 22 26 30 31 27 29 29 19 18 18 21 22 23 24 23 23 23 24 24 25 25 23 23 25 24 24 24 23 23 22 21 20 20 19 18 nan nan nan nan nan nan nan nan nan nan nan nan nan nan nan nan nan nan
6 6 5 5 12 11 9 9 13 12 12 12 10 9 9 10 4 5 5 7 10 9 12 11 9 15 14 14 17 16 18 22 25 31 22 28 29 29 27 24 19 16 14 17 18 21 22 22 23 22 22 23 24 23 23 21 23 23 23 23 22 22 21 20 20 19 18 18 17 nan nan nan nan nan nan nan nan nan nan nan nan nan nan nan nan
5 4 4 10 8 14 10 15 13 11 11 8 7 9 9 8 5 5 7 10 8 10 12 7 10 13 14 15 16 16 19 20 27 22 24 27 29 29 27 26 22 19 17 16 15 18 20 21 21 21 21 21 20 21 23 22 20 21 22 22 22 21 21 20 20 19 19 18 17 17 nan nan nan nan nan nan nan nan nan nan nan nan nan nan nan
5 6 3 8 11 13 16 15 12 13 13 11 11 9 7 6 6 7 9 8 7 10 13 7 11 10 13 14 15 14 16 18 25 22 23 25 23 26 28 27 23 19 20 21 19 19 20 21 21 20 22 21 21 19 20 23 23 21 21 20 21 19 19 19 19 19 19 18 17 17 18 nan nan nan nan nan nan nan nan nan nan nan nan nan nan
7 8 6 10 8 14 22 21 14 14 15 13 9 9 10 8 7 7 8 8 8 8 9 7 10 9 11 14 14 15 16 18 20 21 21 22 25 25 25 28 26 22 22 22 22 23 22 20 17 15 19 19 20 19 19 21 22 20 19 19 20 21 21 17 16 18 18 18 17 17 17 20 20 nan nan nan nan nan nan nan nan nan nan nan nan
9 9 9 8 14 13 22 20 18 15 15 15 10 10 11 10 8 8 7 10 9 6 4 7 14 10 11 14 14 15 17 17 17 19 17 23 22 23 24 25 25 25 24 23 21 23 23 15 13 15 17 19 16 14 16 19 23 21 17 17 18 19 19 18 17 16 17 17 16 17 19 19 20 20 nan nan nan nan nan nan nan nan nan nan nan
9 10 10 11 13 18 21 19 16 16 14 15 13 12 11 11 11 10 7 9 8 3 4 7 14 16 13 12 16 15 16 14 16 15 16 19 20 21 23 24 26 25 23 20 24 23 20 18 17 17 17 18 16 14 18 20 21 22 22 22 20 19 18 17 16 16 16 16 15 15 19 19 20 20 19 19 nan nan nan nan nan nan nan nan nan
9 10 12 13 18 16 20 20 19 17 15 15 14 14 12 12 12 11 9 9 9 8 7 16 12 15 16 14 14 13 14 16 14 12 13 14 15 17 19 20 22 26 23 21 23 23 22 20 19 20 20 18 17 20 20 21 24 24 23 23 22 20 19 18 19 18 16 16 17 17 18 20 21 21 19 19 19 nan nan nan nan nan nan nan nan
11 11 12 14 16 18 18 19 18 19 16 16 15 15 14 12 12 12 11 10 7 7 8 11 14 17 18 14 11 13 13 14 14 13 17 9 12 16 16 20 15 19 23 24 23 23 24 21 18 20 21 20 20 22 22 22 nan 27 27 26 24 23 22 22 23 22 21 19 17 18 19 20 22 21 20 20 20 20 20 nan nan nan nan nan nan
11 12 13 15 16 16 17 18 19 17 17 18 16 16 15 11 10 10 12 11 8 9 11 14 15 18 18 14 11 12 16 12 15 17 17 12 15 16 16 14 7 21 20 24 23 23 22 16 21 21 19 20 23 25 22 23 29 nan nan nan nan nan 24 24 24 25 25 25 26 25 23 21 19 19 21 22 22 21 20 20 nan nan nan nan nan
11 12 14 15 15 15 15 16 17 17 17 17 18 19 17 9 12 11 13 10 11 14 13 14 14 20 18 15 13 17 12 15 18 16 15 14 18 17 12 15 12 21 20 21 24 24 23 24 23 22 22 23 24 25 23 26 24 21 nan nan nan nan nan nan nan 23 24 25 26 27 26 26 23 21 22 23 25 25 24 23 21 nan nan nan nan
12 12 13 14 15 14 nan 14 15 16 15 15 17 18 24 19 16 13 12 10 10 14 14 16 14 15 19 18 17 19 19 19 18 19 17 15 16 19 14 18 18 21 18 21 24 25 nan nan nan nan 25 24 25 nan nan nan nan nan nan nan nan nan nan nan nan nan 24 24 24 24 24 24 26 25 25 28 28 26 28 25 24 23 21 nan nan
13 12 12 nan 15 15 15 14 16 15 16 15 16 16 17 20 16 16 13 12 12 12 12 15 15 15 15 18 21 20 22 23 21 23 23 17 17 19 18 20 22 23 24 nan nan nan nan nan nan nan nan nan nan nan nan nan nan nan nan nan nan nan nan nan nan nan nan 27 26 24 23 23 25 28 28 29 23 21 25 27 28 26 25 25 nan
12 13 12 13 13 14 15 16 14 16 nan 16 16 16 16 18 20 17 15 15 16 14 11 11 13 18 16 18 18 21 25 18 22 22 24 24 23 nan 23 23 nan nan nan nan nan nan nan nan nan nan nan nan nan nan nan nan nan nan nan nan nan nan nan nan nan nan nan nan 29 30 31 30 29 30 31 33 25 22 22 24 28 27 27 27 26
15 14 14 15 13 14 14 16 16 17 nan 18 18 19 20 20 19 18 17 17 16 16 15 16 16 14 21 17 20 22 25 20 20 23 22 23 nan nan nan nan nan nan nan nan nan nan nan nan nan nan nan nan nan nan nan nan nan nan nan nan nan nan nan nan nan nan nan nan nan 34 34 35 34 36 35 31 27 24 23 26 25 26 27 27 26
14 16 15 16 17 15 16 16 17 18 19 20 21 22 22 22 21 19 19 18 16 16 16 18 20 13 16 21 18 22 23 24 22 22 21 19 24 nan 24 nan nan nan nan nan nan nan nan nan nan nan nan nan nan nan nan nan nan nan nan nan nan nan nan nan nan nan nan nan nan nan nan 37 39 40 40 40 31 24 26 25 24 22 23 24 23
17 17 17 19 19 18 18 17 18 19 20 21 21 22 22 22 22 22 21 19 18 18 17 18 19 18 17 20 19 20 24 21 24 24 21 19 19 nan 26 nan nan nan nan nan nan nan nan nan nan nan nan nan nan nan nan nan nan nan nan nan nan nan nan nan nan nan nan nan nan nan nan nan nan nan nan nan 39 43 35 26 28 30 30 36 40
19 20 20 20 20 20 19 19 20 21 21 nan nan 24 23 23 23 23 22 21 20 19 19 19 19 18 18 20 20 20 21 25 23 25 23 21 22 nan nan nan nan nan nan nan nan nan nan nan nan nan nan nan nan nan nan nan nan nan nan nan nan nan nan nan nan nan nan nan nan nan nan nan nan nan nan nan nan 35 34 37 41 41 41 40 38
22 23 23 nan nan nan 20 20 nan nan nan nan nan nan 24 24 24 25 24 23 21 21 20 19 18 19 18 19 20 22 20 22 23 22 28 20 22 nan nan nan nan nan nan nan nan nan nan nan nan nan nan nan nan nan nan nan nan nan nan nan nan nan nan nan nan nan nan nan nan nan nan nan nan nan nan nan nan nan nan 30 31 33 35 35 35
24 24 nan nan 21 22 22 nan nan nan nan 26 nan nan nan nan nan nan 25 24 23 23 22 21 19 19 nan nan nan nan nan nan nan nan nan nan nan nan nan nan nan nan nan nan nan nan nan nan nan nan nan nan nan nan nan nan nan nan nan nan nan nan nan nan nan nan nan nan nan nan nan nan nan nan nan nan nan nan nan nan nan nan nan nan nan
21 nan nan nan nan nan nan nan nan nan nan nan nan nan nan nan nan nan nan nan nan 22 20 20 19 nan nan nan nan nan nan nan nan nan nan nan nan nan nan nan nan nan nan nan nan nan nan nan nan nan nan nan nan nan nan nan nan nan nan nan nan nan nan nan nan nan nan nan nan nan nan nan nan nan nan nan nan nan nan nan nan nan nan nan nan
nan nan nan nan nan nan nan nan nan nan nan nan nan nan nan nan nan nan nan nan nan nan nan nan nan nan nan nan nan nan nan nan nan nan nan nan nan nan nan nan nan nan nan nan nan nan nan nan nan nan nan nan nan nan nan nan nan nan nan nan nan nan nan nan nan nan nan nan nan nan nan nan nan nan nan nan nan nan nan nan nan nan nan nan nan
nan nan nan nan nan nan nan nan nan nan nan nan nan nan nan nan nan nan nan nan nan nan nan nan nan nan nan nan nan nan nan nan nan nan nan nan nan nan nan nan nan nan nan nan nan nan nan nan nan nan nan nan nan nan nan nan nan nan nan nan nan nan nan nan nan nan nan nan nan nan nan nan nan nan nan nan nan nan nan nan nan nan nan nan nan
nan nan nan nan nan nan nan nan nan nan nan nan nan nan nan nan nan nan nan nan nan nan nan nan nan nan nan nan nan nan nan nan nan nan nan nan nan nan nan nan nan nan nan nan nan nan nan nan nan nan nan nan nan nan nan nan nan nan nan nan nan nan nan nan nan nan nan nan nan nan nan nan nan nan nan nan nan nan nan nan nan nan nan nan nan
nan nan nan nan nan nan nan nan nan nan nan nan nan nan nan nan nan nan nan nan nan nan nan nan nan nan nan nan nan nan nan nan nan nan nan nan nan nan nan nan nan nan nan nan nan nan nan nan nan nan nan nan nan nan nan nan nan nan nan nan nan nan nan nan nan nan nan nan nan nan nan nan nan nan nan nan nan nan nan nan nan nan nan nan nan
nan nan nan nan nan nan nan nan nan nan nan nan nan nan nan nan nan nan nan nan nan nan nan nan nan nan nan nan nan nan nan nan nan nan nan nan nan nan nan nan nan nan nan nan nan nan nan nan nan nan nan nan nan nan nan nan nan nan nan nan nan nan nan nan nan nan nan nan nan nan nan nan nan nan nan nan nan nan nan nan nan nan nan nan nan
nan nan nan nan nan nan nan nan nan nan nan nan nan nan nan nan nan nan nan nan nan nan nan nan nan nan nan nan nan nan nan nan nan nan nan nan nan nan nan nan nan nan nan nan nan nan nan nan nan nan nan nan nan nan nan nan nan nan nan nan nan nan nan nan nan nan nan nan nan nan nan nan nan nan nan nan nan nan nan nan nan nan nan nan nan
nan nan nan nan nan nan nan nan nan nan nan nan nan nan nan nan nan nan nan nan nan nan nan nan nan nan nan nan nan nan nan nan nan nan nan nan nan nan nan nan nan nan nan nan nan nan nan nan nan nan nan nan nan nan nan nan nan nan nan nan nan nan nan nan nan nan nan nan nan nan nan nan nan nan nan nan nan nan nan nan nan nan nan nan nan
nan nan nan nan nan nan nan nan nan nan nan nan nan nan nan nan nan nan nan nan nan nan nan nan nan nan nan nan nan nan nan nan nan nan nan nan nan nan nan nan nan nan nan nan nan nan nan nan nan nan nan nan nan nan nan nan nan nan nan nan nan nan nan nan nan nan nan nan nan nan nan nan nan nan nan nan nan nan nan nan nan nan nan nan nan
nan nan nan nan nan nan nan nan nan nan nan nan nan nan nan nan nan nan nan nan nan nan nan nan nan nan nan nan nan nan nan nan nan nan nan nan nan nan nan nan nan nan nan nan nan nan nan nan nan nan nan nan nan nan nan nan nan nan nan nan nan nan nan nan nan nan nan nan nan nan nan nan nan nan nan nan nan nan nan nan nan nan nan nan nan
nan nan nan nan nan nan nan nan nan nan nan nan nan nan nan nan nan nan nan nan nan nan nan nan nan nan nan nan nan nan nan nan nan nan nan nan nan nan nan nan nan nan nan nan nan nan nan nan nan nan nan nan nan nan nan nan nan nan nan nan nan nan nan nan nan nan nan nan nan nan nan nan nan nan nan nan nan nan nan nan nan nan nan nan nan
nan nan nan nan nan nan nan nan nan nan nan nan nan nan nan nan nan nan nan nan nan nan nan nan nan nan nan nan nan nan nan nan nan nan nan nan nan nan nan nan nan nan nan nan nan nan nan nan nan nan nan nan nan nan nan nan nan nan nan nan nan nan nan nan nan nan nan nan nan nan nan nan nan nan nan nan nan nan nan nan nan nan nan nan nan
nan nan nan nan nan nan nan nan nan nan nan nan nan nan nan nan 22 22 22 24 24 24 nan nan nan nan nan nan nan nan nan nan nan nan nan nan nan nan nan nan nan nan nan nan nan nan nan nan nan nan nan nan nan nan nan nan nan nan nan nan nan nan nan nan nan nan nan nan nan nan nan nan nan nan nan nan nan nan nan nan nan nan nan nan nan
24 nan nan nan nan nan nan nan nan nan nan nan nan nan nan 22 23 24 25 26 26 27 26 26 27 28 29 29 30 nan nan nan nan nan nan nan nan nan nan nan nan nan nan nan nan nan nan nan nan nan nan nan nan nan nan nan nan nan nan nan nan nan nan nan nan nan nan nan nan nan nan nan nan nan nan nan nan nan nan nan nan nan nan nan nan
nan nan nan nan 22 nan nan nan nan nan nan nan nan 23 23 25 26 28 29 29 29 29 29 28 28 28 30 31 31 32 33 33 nan nan nan nan nan nan nan nan nan nan nan nan nan nan nan nan nan nan nan nan nan nan nan nan nan nan nan nan nan nan nan nan nan nan nan nan nan nan nan nan nan nan nan nan nan nan nan nan nan nan nan nan nan
nan nan nan nan nan 24 25 27 27 28 28 27 31 31 28 27 29 30 32 32 32 31 30 29 29 30 30 31 31 31 37 nan nan nan nan nan nan 38 nan nan nan nan nan nan nan nan nan nan nan nan nan nan nan nan nan nan nan nan nan nan nan nan nan nan nan nan nan nan nan nan nan nan nan nan nan nan nan nan nan nan nan nan nan nan nan
25 26 nan nan nan nan 28 29 29 30 31 34 40 36 35 32 31 33 34 34 33 32 31 31 30 31 32 29 29 39 39 nan nan nan nan nan nan nan nan nan nan 36 nan nan nan nan nan nan nan nan nan nan nan nan nan nan nan nan nan nan nan nan nan nan nan nan nan nan nan nan nan nan nan nan nan nan nan nan nan nan nan nan nan nan nan
29 30 29 28 29 30 31 31 31 32 34 43 42 41 38 36 33 35 36 35 35 34 33 32 33 32 34 34 34 34 34 33 35 39 40 41 42 nan nan nan nan nan nan nan nan nan nan nan nan nan nan nan nan nan nan nan nan nan nan nan nan nan nan nan nan nan nan nan nan nan nan nan nan nan nan nan nan nan nan nan nan nan nan nan nan
33 33 33 32 32 32 33 32 32 34 39 41 43 41 40 nan 35 37 38 37 36 36 33 32 31 33 41 38 37 41 37 34 32 32 35 38 42 45 nan nan nan nan nan nan nan nan nan nan nan nan nan nan nan nan nan nan nan nan nan nan nan nan nan nan nan nan nan nan nan nan nan nan nan nan nan nan nan nan nan nan nan nan nan nan nan
35 35 36 36 35 35 35 35 35 34 44 42 43 44 41 nan nan nan 36 36 36 35 34 34 33 32 40 40 45 40 36 37 33 30 34 nan 38 40 nan nan nan nan nan nan nan nan nan nan nan nan nan nan nan nan nan nan nan nan nan nan nan nan nan nan nan nan nan nan nan nan nan nan nan nan nan nan nan nan nan nan nan nan nan nan nan
40 41 40 39 39 38 37 36 35 36 41 47 44 44 42 nan nan nan 38 38 38 37 39 38 nan 35 34 43 46 42 37 39 33 36 39 nan nan nan nan nan nan nan nan nan nan nan nan nan nan nan nan nan nan nan nan nan nan nan nan nan nan nan nan nan nan nan nan nan nan nan nan nan nan nan nan nan nan nan nan nan nan nan nan nan nan
40 40 39 37 37 38 38 38 35 37 41 49 46 46 45 44 46 nan 41 41 41 41 41 42 42 41 41 42 nan 45 47 41 50 47 nan 46 nan nan nan nan nan nan nan nan nan nan nan nan nan nan nan nan nan nan nan nan nan nan nan nan nan nan nan nan nan nan nan nan nan nan nan nan nan nan nan nan nan nan nan nan nan nan nan nan nan
35 35 36 36 36 36 37 39 40 41 47 47 47 49 50 nan nan nan 43 45 44 44 44 42 42 nan 46 47 45 nan 47 52 nan nan nan nan nan nan nan nan nan nan nan nan nan nan nan nan nan nan nan nan nan nan nan nan nan nan nan nan nan nan nan nan nan nan nan nan nan nan nan nan nan nan nan nan nan nan nan nan nan nan nan nan nan
40 41 42 42 42 42 42 43 43 44 48 52 50 50 51 nan nan 44 45 47 46 nan 45 44 45 50 nan nan nan 46 54 57 nan nan nan 52 nan nan nan nan nan nan nan nan nan nan nan nan nan nan nan nan nan nan nan nan nan nan nan nan nan nan nan nan nan nan nan nan nan nan nan nan nan nan nan nan nan nan nan nan nan nan nan nan nan
45 46 47 47 48 48 48 47 53 50 53 51 49 50 49 48 44 43 45 43 nan nan nan 49 53 nan nan nan nan nan nan nan nan nan nan nan nan nan nan nan nan nan nan nan nan nan nan nan nan nan nan nan nan nan nan nan nan nan nan nan nan nan nan nan nan nan nan nan nan nan nan nan nan nan nan nan nan nan nan nan nan nan nan nan nan
Wind_Direction
285 284 289 285 281 283 286 291 285 250 304 292 276 275 266 247 256 266 267 268 263 258 259 267 268 267 272 272 276 279 277 276 274 278 275 271 271 273 274 269 261 260 270 271 270 269 268 266 266 265 264 265 273 275 276 277 274 272 271 268 nan nan nan nan nan nan nan nan nan nan nan nan nan nan nan nan nan nan nan nan nan nan nan nan nan
282 282 280 288 293 285 292 297 281 268 254 249 250 238 240 233 235 253 268 269 270 265 263 265 271 268 269 277 280 279 277 280 279 281 279 275 272 275 275 269 263 259 261 265 270 269 270 271 269 269 271 nan 277 274 276 277 275 276 274 273 270 nan nan nan nan nan nan nan nan nan nan nan nan nan nan nan nan nan nan nan nan nan nan nan nan
282 286 281 289 291 288 287 281 273 263 256 253 253 257 245 219 203 210 263 265 267 269 266 269 271 274 274 273 279 272 277 275 281 279 278 276 276 276 274 269 266 260 256 252 259 268 264 270 274 276 274 273 269 279 278 275 277 276 276 274 274 nan 270 nan nan nan nan nan nan nan nan nan nan nan nan nan nan nan nan nan nan nan nan nan nan
284 287 284 282 285 285 282 281 273 263 264 256 258 247 242 223 197 179 228 250 266 267 252 270 276 276 278 284 273 280 276 277 276 277 270 275 268 269 268 270 267 266 261 259 254 258 264 271 272 276 282 278 276 272 276 278 275 274 275 275 275 275 274 272 nan nan nan nan nan nan nan nan nan nan nan nan nan nan nan nan nan nan nan nan nan
294 301 297 295 296 291 286 285 275 269 265 255 241 240 225 230 209 199 198 250 263 264 275 268 273 275 281 277 280 274 276 268 265 274 273 267 267 262 266 269 271 269 270 266 264 263 259 270 275 274 274 280 278 276 275 271 nan 273 283 278 278 276 275 275 275 nan nan nan nan nan nan nan nan nan nan nan nan nan nan nan nan nan nan nan nan
301 303 299 287 292 288 287 283 281 282 276 256 250 243 240 240 237 206 202 207 222 245 259 266 270 268 266 279 275 275 269 270 266 261 260 263 262 271 266 260 270 274 278 281 279 272 265 268 271 269 273 271 272 274 273 274 271 nan 272 280 279 276 272 271 271 273 nan nan nan nan nan nan nan nan nan nan nan nan nan nan nan nan nan nan nan
296 293 310 290 289 286 292 295 286 285 279 271 263 253 251 262 257 221 193 209 202 220 263 262 265 282 274 266 275 261 256 266 269 253 259 272 279 278 284 288 274 270 273 280 280 278 274 272 273 273 273 273 274 272 275 271 274 273 274 282 278 276 271 269 268 266 268 nan nan nan nan nan nan nan nan nan nan nan nan nan nan nan nan nan nan
304 313 297 289 273 296 302 283 284 283 277 273 266 265 264 268 261 239 230 230 239 210 216 252 242 266 271 263 258 266 273 262 252 260 267 268 272 272 272 273 276 282 284 273 272 282 287 285 280 276 276 274 272 275 275 272 270 277 274 279 279 279 272 266 267 264 265 267 269 nan nan nan nan nan nan nan nan nan nan nan nan nan nan nan nan
291 299 297 281 290 290 296 289 284 284 280 267 262 247 261 280 256 246 262 262 227 240 250 221 277 265 262 264 264 263 256 252 270 265 264 270 275 284 282 281 288 292 284 286 283 289 288 284 285 280 281 277 275 268 266 268 267 269 274 273 286 286 283 276 268 268 266 266 265 266 nan nan nan nan nan nan nan nan nan nan nan nan nan nan nan
303 292 264 287 300 297 289 290 300 300 293 276 268 269 275 270 274 280 277 262 260 246 238 239 254 273 270 266 266 267 262 269 270 273 268 269 276 279 282 288 289 289 291 292 294 288 285 279 270 268 267 263 261 272 275 270 263 258 256 258 262 272 286 282 281 278 273 269 266 267 266 nan nan nan nan nan nan nan nan nan nan nan nan nan nan
284 280 293 266 262 288 291 295 305 303 299 290 284 287 281 288 289 277 259 262 250 249 260 272 269 249 275 271 270 263 263 262 265 268 274 275 275 280 283 284 289 295 295 290 287 283 277 267 265 276 281 281 272 269 271 271 267 264 264 267 264 261 257 270 272 273 273 270 267 268 268 271 272 nan nan nan nan nan nan nan nan nan nan nan nan
287 285 281 268 264 271 266 277 284 297 299 300 308 291 294 291 288 284 262 255 255 239 298 306 287 277 267 272 265 266 264 272 282 279 279 275 274 275 277 283 282 284 286 284 278 278 271 276 277 266 275 279 283 283 279 269 260 259 263 264 267 266 267 263 260 260 262 271 268 266 268 267 273 275 nan nan nan nan nan nan nan nan nan nan nan
285 286 278 275 268 261 266 280 290 285 288 287 289 291 285 289 285 265 257 256 252 269 308 268 277 278 271 274 264 250 262 263 260 272 275 281 275 275 275 280 284 280 276 276 268 268 280 279 279 283 277 279 286 296 274 272 268 262 260 260 257 259 264 259 259 257 257 258 265 270 274 277 275 276 278 277 nan nan nan nan nan nan nan nan nan
275 276 273 267 265 266 268 272 277 281 287 289 294 294 291 291 290 288 277 266 262 277 235 271 275 278 279 273 259 261 247 246 244 249 268 275 273 265 270 271 277 288 287 273 275 286 282 279 280 277 283 282 282 280 283 287 282 275 270 265 264 254 247 253 253 252 250 251 259 263 267 277 280 280 282 282 280 nan nan nan nan nan nan nan nan
268 267 268 272 268 268 271 274 279 286 288 293 301 297 299 306 317 304 298 295 286 274 293 278 275 276 272 266 281 280 262 271 280 272 265 265 260 264 257 259 270 272 283 287 289 283 281 286 289 286 294 295 291 286 286 281 nan 275 267 260 259 256 252 247 246 247 243 249 251 254 259 265 270 279 285 285 285 281 272 nan nan nan nan nan nan
264 262 259 265 269 269 272 272 273 279 289 294 299 297 297 307 321 309 303 292 284 302 294 277 262 265 270 276 298 282 294 294 283 277 273 274 270 254 253 262 257 282 281 280 279 281 279 285 286 281 276 278 287 294 295 290 284 nan nan nan nan nan 254 252 248 244 243 240 242 253 253 250 261 269 281 285 284 281 275 268 nan nan nan nan nan
248 258 260 258 259 264 267 275 277 279 282 293 292 299 302 324 315 308 305 305 316 295 290 280 282 269 273 276 287 288 287 296 295 278 276 278 281 283 287 269 272 274 281 282 275 286 296 285 277 280 278 280 279 275 273 283 289 272 nan nan nan nan nan nan nan 248 245 241 242 242 250 260 261 258 261 271 275 273 274 271 271 nan nan nan nan
237 243 251 261 265 267 nan 278 286 284 280 280 282 288 301 315 311 311 310 310 280 288 282 275 267 275 281 284 281 285 302 294 291 289 279 291 291 278 257 294 278 268 263 284 293 285 nan nan nan nan 276 272 272 nan nan nan nan nan nan nan nan nan nan nan nan nan 242 243 244 245 249 253 266 267 265 259 258 270 272 272 270 270 268 nan nan
238 245 250 nan 259 261 265 266 272 281 282 283 282 285 286 294 294 296 292 287 284 278 277 279 279 285 285 288 291 283 290 296 289 290 287 283 280 274 276 266 276 288 288 nan nan nan nan nan nan nan nan nan nan nan nan nan nan nan nan nan nan nan nan nan nan nan nan 243 244 248 251 253 254 257 257 262 261 262 277 274 269 266 264 264 nan
248 250 262 268 265 268 268 267 275 279 nan 279 283 284 277 279 284 284 283 285 283 272 266 277 294 290 295 293 281 293 293 286 292 290 290 293 292 nan 271 269 nan nan nan nan nan nan nan nan nan nan nan nan nan nan nan nan nan nan nan nan nan nan nan nan nan nan nan nan 246 246 250 254 253 254 260 269 279 280 271 271 270 269 266 267 268
253 257 261 270 276 271 267 263 259 266 nan 278 279 281 282 280 278 283 284 282 282 297 306 294 280 274 295 299 299 296 291 287 286 287 288 292 nan nan nan nan nan nan nan nan nan nan nan nan nan nan nan nan nan nan nan nan nan nan nan nan nan nan nan nan nan nan nan nan nan 248 251 251 252 252 254 268 279 283 290 283 274 271 270 268 270
267 269 274 280 277 282 277 270 267 262 263 270 279 281 282 279 275 270 268 271 272 278 280 286 282 293 287 284 296 295 291 289 290 291 280 280 285 nan 285 nan nan nan nan nan nan nan nan nan nan nan nan nan nan nan nan nan nan nan nan nan nan nan nan nan nan nan nan nan nan nan nan 251 251 251 250 251 258 279 288 284 283 277 269 268 267
278 278 273 273 274 274 278 277 272 267 270 278 279 281 282 280 277 273 269 266 269 269 273 277 284 282 277 282 282 279 277 288 278 283 287 277 283 nan 292 nan nan nan nan nan nan nan nan nan nan nan nan nan nan nan nan nan nan nan nan nan nan nan nan nan nan nan nan nan nan nan nan nan nan nan nan nan 256 257 258 270 262 256 253 247 245
289 285 281 277 277 277 276 275 273 275 277 nan nan 286 282 280 278 276 272 270 271 271 269 273 274 278 277 281 283 280 286 284 290 287 286 290 280 nan nan nan nan nan nan nan nan nan nan nan nan nan nan nan nan nan nan nan nan nan nan nan nan nan nan nan nan nan nan nan nan nan nan nan nan nan nan nan nan 256 260 253 247 245 246 246 246
294 290 287 nan nan nan 277 274 nan nan nan nan nan nan 280 280 280 277 275 272 270 271 270 268 266 275 281 284 287 288 290 293 287 285 284 291 292 nan nan nan nan nan nan nan nan nan nan nan nan nan nan nan nan nan nan nan nan nan nan nan nan nan nan nan nan nan nan nan nan nan nan nan nan nan nan nan nan nan nan 252 246 242 243 246 246
294 292 nan nan 285 276 271 nan nan nan nan 273 nan nan nan nan nan nan 276 273 272 271 271 269 270 273 nan nan nan nan nan nan nan nan nan nan nan nan nan nan nan nan nan nan nan nan nan nan nan nan nan nan nan nan nan nan nan nan nan nan nan nan nan nan nan nan nan nan nan nan nan nan nan nan nan nan nan nan nan nan nan nan nan nan nan
295 nan nan nan nan nan nan nan nan nan nan nan nan nan nan nan nan nan nan nan nan 269 268 269 269 nan nan nan nan nan nan nan nan nan nan nan nan nan nan nan nan nan nan nan nan nan nan nan nan nan nan nan nan nan nan nan nan nan nan nan nan nan nan nan nan nan nan nan nan nan nan nan nan nan nan nan nan nan nan nan nan nan nan nan nan
nan nan nan nan nan nan nan nan nan nan nan nan nan nan nan nan nan nan nan nan nan nan nan nan nan nan nan nan nan nan nan nan nan nan nan nan nan nan nan nan nan nan nan nan nan nan nan nan nan nan nan nan nan nan nan nan nan nan nan nan nan nan nan nan nan nan nan nan nan nan nan nan nan nan nan nan nan nan nan nan nan nan nan nan nan
nan nan nan nan nan nan nan nan nan nan nan nan nan nan nan nan nan nan nan nan nan nan nan nan nan nan nan nan nan nan nan nan nan nan nan nan nan nan nan nan nan nan nan nan nan nan nan nan nan nan nan nan nan nan nan nan nan nan nan nan nan nan nan nan nan nan nan nan nan nan nan nan nan nan nan nan nan nan nan nan nan nan nan nan nan
nan nan nan nan nan nan nan nan nan nan nan nan nan nan nan nan nan nan nan nan nan nan nan nan nan nan nan nan nan nan nan nan nan nan nan nan nan nan nan nan nan nan nan nan nan nan nan nan nan nan nan nan nan nan nan nan nan nan nan nan nan nan nan nan nan nan nan nan nan nan nan nan nan nan nan nan nan nan nan nan nan nan nan nan nan
nan nan nan nan nan nan nan nan nan nan nan nan nan nan nan nan nan nan nan nan nan nan nan nan nan nan nan nan nan nan nan nan nan nan nan nan nan nan nan nan nan nan nan nan nan nan nan nan nan nan nan nan nan nan nan nan nan nan nan nan nan nan nan nan nan nan nan nan nan nan nan nan nan nan nan nan nan nan nan nan nan nan nan nan nan
nan nan nan nan nan nan nan nan nan nan nan nan nan nan nan nan nan nan nan nan nan nan nan nan nan nan nan nan nan nan nan nan nan nan nan nan nan nan nan nan nan nan nan nan nan nan nan nan nan nan nan nan nan nan nan nan nan nan nan nan nan nan nan nan nan nan nan nan nan nan nan nan nan nan nan nan nan nan nan nan nan nan nan nan nan
nan nan nan nan nan nan nan nan nan nan nan nan nan nan nan nan nan nan nan nan nan nan nan nan nan nan nan nan nan nan nan nan nan nan nan nan nan nan nan nan nan nan nan nan nan nan nan nan nan nan nan nan nan nan nan nan nan nan nan nan nan nan nan nan nan nan nan nan nan nan nan nan nan nan nan nan nan nan nan nan nan nan nan nan nan
nan nan nan nan nan nan nan nan nan nan nan nan nan nan nan nan nan nan nan nan nan nan nan nan nan nan nan nan nan nan nan nan nan nan nan nan nan nan nan nan nan nan nan nan nan nan nan nan nan nan nan nan nan nan nan nan nan nan nan nan nan nan nan nan nan nan nan nan nan nan nan nan nan nan nan nan nan nan nan nan nan nan nan nan nan
nan nan nan nan nan nan nan nan nan nan nan nan nan nan nan nan nan nan nan nan nan nan nan nan nan nan nan nan nan nan nan nan nan nan nan nan nan nan nan nan nan nan nan nan nan nan nan nan nan nan nan nan nan nan nan nan nan nan nan nan nan nan nan nan nan nan nan nan nan nan nan nan nan nan nan nan nan nan nan nan nan nan nan nan nan
nan nan nan nan nan nan nan nan nan nan nan nan nan nan nan nan nan nan nan nan nan nan nan nan nan nan nan nan nan nan nan nan nan nan nan nan nan nan nan nan nan nan nan nan nan nan nan nan nan nan nan nan nan nan nan nan nan nan nan nan nan nan nan nan nan nan nan nan nan nan nan nan nan nan nan nan nan nan nan nan nan nan nan nan nan
nan nan nan nan nan nan nan nan nan nan nan nan nan nan nan nan nan nan nan nan nan nan nan nan nan nan nan nan nan nan nan nan nan nan nan nan nan nan nan nan nan nan nan nan nan nan nan nan nan nan nan nan nan nan nan nan nan nan nan nan nan nan nan nan nan nan nan nan nan nan nan nan nan nan nan nan nan nan nan nan nan nan nan nan nan
nan nan nan nan nan nan nan nan nan nan nan nan nan nan nan nan nan nan nan nan nan nan nan nan nan nan nan nan nan nan nan nan nan nan nan nan nan nan nan nan nan nan nan nan nan nan nan nan nan nan nan nan nan nan nan nan nan nan nan nan nan nan nan nan nan nan nan nan nan nan nan nan nan nan nan nan nan nan nan nan nan nan nan nan nan
nan nan nan nan nan nan nan nan nan nan nan nan nan nan nan nan 292 295 294 294 295 291 nan nan nan nan nan nan nan nan nan nan nan nan nan nan nan nan nan nan nan nan nan nan nan nan nan nan nan nan nan nan nan nan nan nan nan nan nan nan nan nan nan nan nan nan nan nan nan nan nan nan nan nan nan nan nan nan nan nan nan nan nan nan nan
279 nan nan nan nan nan nan nan nan nan nan nan nan nan nan 292 289 291 293 293 294 293 291 292 289 289 289 287 286 nan nan nan nan nan nan nan nan nan nan nan nan nan nan nan nan nan nan nan nan nan nan nan nan nan nan nan nan nan nan nan nan nan nan nan nan nan nan nan nan nan nan nan nan nan nan nan nan nan nan nan nan nan nan nan nan
nan nan nan nan 283 nan nan nan nan nan nan nan nan 293 293 291 289 289 291 292 292 293 294 294 292 292 291 288 284 283 284 282 nan nan nan nan nan nan nan nan nan nan nan nan nan nan nan nan nan nan nan nan nan nan nan nan nan nan nan nan nan nan nan nan nan nan nan nan nan nan nan nan nan nan nan nan nan nan nan nan nan nan nan nan nan
nan nan nan nan nan 284 285 288 291 293 292 292 283 281 261 281 287 287 287 290 291 291 292 293 295 295 293 288 284 282 283 nan nan nan nan nan nan 260 nan nan nan nan nan nan nan nan nan nan nan nan nan nan nan nan nan nan nan nan nan nan nan nan nan nan nan nan nan nan nan nan nan nan nan nan nan nan nan nan nan nan nan nan nan nan nan
274 273 nan nan nan nan 287 289 292 290 290 287 284 284 280 269 283 285 285 286 289 289 291 290 291 293 285 278 282 276 278 nan nan nan nan nan nan nan nan nan nan 266 nan nan nan nan nan nan nan nan nan nan nan nan nan nan nan nan nan nan nan nan nan nan nan nan nan nan nan nan nan nan nan nan nan nan nan nan nan nan nan nan nan nan nan
270 272 274 276 278 280 281 286 289 289 287 284 291 288 286 283 274 279 285 285 287 289 289 291 290 288 287 276 260 263 270 275 279 276 275 275 273 nan nan nan nan nan nan nan nan nan nan nan nan nan nan nan nan nan nan nan nan nan nan nan nan nan nan nan nan nan nan nan nan nan nan nan nan nan nan nan nan nan nan nan nan nan nan nan nan
266 272 276 276 276 278 280 282 284 284 281 276 288 284 283 nan 280 274 284 286 287 288 288 286 285 279 274 270 273 269 276 285 281 279 278 272 268 270 nan nan nan nan nan nan nan nan nan nan nan nan nan nan nan nan nan nan nan nan nan nan nan nan nan nan nan nan nan nan nan nan nan nan nan nan nan nan nan nan nan nan nan nan nan nan nan
276 275 276 278 278 279 280 282 282 280 277 286 289 289 286 nan nan nan 280 280 283 283 282 276 269 272 273 273 269 272 273 280 280 282 282 nan 278 275 nan nan nan nan nan nan nan nan nan nan nan nan nan nan nan nan nan nan nan nan nan nan nan nan nan nan nan nan nan nan nan nan nan nan nan nan nan nan nan nan nan nan nan nan nan nan nan
272 273 274 276 277 279 281 279 279 281 280 289 290 291 290 nan nan nan 277 276 276 274 265 268 nan 263 268 272 274 275 275 278 279 279 280 nan nan nan nan nan nan nan nan nan nan nan nan nan nan nan nan nan nan nan nan nan nan nan nan nan nan nan nan nan nan nan nan nan nan nan nan nan nan nan nan nan nan nan nan nan nan nan nan nan nan
268 270 272 272 274 276 276 276 277 280 280 290 292 293 290 284 280 nan 278 277 276 275 275 276 275 273 271 271 nan 276 280 278 274 272 nan 281 nan nan nan nan nan nan nan nan nan nan nan nan nan nan nan nan nan nan nan nan nan nan nan nan nan nan nan nan nan nan nan nan nan nan nan nan nan nan nan nan nan nan nan nan nan nan nan nan nan
267 269 271 274 274 274 275 275 278 282 280 284 289 289 285 nan nan nan 277 276 274 276 275 275 273 nan 265 258 260 nan 271 270 nan nan nan nan nan nan nan nan nan nan nan nan nan nan nan nan nan nan nan nan nan nan nan nan nan nan nan nan nan nan nan nan nan nan nan nan nan nan nan nan nan nan nan nan nan nan nan nan nan nan nan nan nan
270 269 272 274 275 275 275 275 277 280 281 281 285 284 283 nan nan 275 276 275 277 nan 273 271 271 269 nan nan nan 261 271 271 nan nan nan 280 nan nan nan nan nan nan nan nan nan nan nan nan nan nan nan nan nan nan nan nan nan nan nan nan nan nan nan nan nan nan nan nan nan nan nan nan nan nan nan nan nan nan nan nan nan nan nan nan nan
274 274 275 276 277 276 276 277 277 280 276 277 280 281 282 283 278 271 273 275 nan nan nan 272 270 nan nan nan nan nan nan nan nan nan nan nan nan nan nan nan nan nan nan nan nan nan nan nan nan nan nan nan nan nan nan nan nan nan nan nan nan nan nan nan nan nan nan nan nan nan nan nan nan nan nan nan nan nan nan nan nan nan nan nan nan